Weather in Eleja

Latvia     56°24′52″N   23°41′05″E
temp.,
°C
wind,
m/s
gust,
m/s
humid.,
%
clouds,
%
prec.,
mm/h
press.,
hPa
HPBL,
m
23 october, sat
sat2300:00+6wsw51084100 1.3 995390
03:00+4wsw511825 1.3 998284
06:00+4wsw5128380 0.1 999366
09:00+5wsw51384100 0.1 1001419
12:00+8wnw61073100 0.0 10051256
15:00+8wnw6116894 0.1 10081333
18:00+6nw61178100 0.3 1012959
21:00+5nw6118379 0.4 1015666
24 october, sun
sun2400:00+5nw5107688 0.1 1019836
03:00+4nw4975100 0.1 1021507
06:00+4wnw398698 0.1 1023463
09:00+2wnw3886100 0.1 1025189
12:00+6wnw4667100 0.0 1027488
15:00+7w3462100 0.0 1027826
18:00+5sw3476100 0.0 102768
21:00+3ssw498613 0.0 1027172
25 october, mon
mon2500:00+3ssw4118889 0.0 1027256
03:00+4ssw5139326 0.0 1026284
06:00+5ssw5118999 0.0 1025281
09:00+3ssw51293100 0.0 1024290
12:00+8sw6116830 0.0 1024507
15:00+10ssw611585 0.0 1022727
18:00+7ssw5116873 0.0 1021271
21:00+6ssw51374100 0.0 1020379
26 october, tue
tue2600:00+5ssw51375100 0.0 1019353
03:00+5ssw41077100 0.0 1018256
06:00+4ssw41084100 0.0 1017216
09:00+4ssw3992100 0.0 1016217
12:00+9sw597889 0.0 1016455
15:00+12sw5973100 0.0 1015814
18:00+9sw51089100 0.7 1015546
21:00+9sw51292100 1.9 1015481
27 october, wed
wed2700:00+9wsw41093100 2.4 1014602
03:00+7wsw51095100 2.5 1014342
06:00+8wsw5129291 0.0 1014429
09:00+7w5129434 0.1 1016473
12:00+10wnw59737 0.1 1018949
15:00+11w46653 0.1 10191027
18:00+8wsw348473 0.0 101965
21:00+9sw41092100 0.0 1020335